User: anonymous   Login
Location: Limerick
(52.6800°N, 8.6400°W)
Time: 20:58:51
(UTC+01:00)
Language:

Sapphire - Orbit

View from above orbital plane
View from above orbital plane
View from above satellite
View from above satellite

Ground track
Ground track

The orbit data is extracted from the following two-line orbital elements,

1 26932U 01043D   15187.18300850  .00000077  00000-0  61844-4 0  9998
2 26932 067.0561 129.4738 0005048 251.7007 108.3545 14.30154559718551
Epoch (UTC): 06 July 2015 04:23:31
Eccentricity: 0.0005048
inclination: 67.0561°
perigee height: 787 km
apogee height: 795 km
right ascension of ascending node: 129.4738°
argument of perigee: 251.7007°
revolutions per day: 14.30154559
mean anomaly at epoch: 108.3545°
orbit number at epoch: 71855

The dashed part of the orbit path shows where the satellite is in the earth's shadow,  

DLR